[[{"header":{"parameterUnit":"m.s-1","parameterCategory":1,"la1":30.2991,"la2":30.254,"lo1":-89.0895,"lo2":-89.0444,"dy":0.0017,"dx":0.0017,"nx":28,"ny":28,"refTime":"2023-08-17T21:00:00:Z","depth":0,"parameterNumber":2,"parameterNumberName":"U-component_of_WINDS"},"data":[0,0,0,0,0,0,0,0,0,0,0,0,0,0,0,0,0,0,0,0,0,0,0,0,0,0,0,0,0,0,0,0,0,0,0,0,0,0,0,0,0,0,0,0,0,0,0,0,0,0,0,0,0,0,0,0,0,0,-0.0327,-0.0326,0,-0.0261,-0.026,-0.0259,-0.0178,-0.0176,-0.0175,-0.0174,-0.0106,-0.0105,-0.0105,0,0,0,0,0,0,0,0,0,0,0,0,0,-0.0381,-0.0381,-0.0327,-0.0326,-0.0325,-0.0261,-0.026,-0.0259,-0.0178,-0.0176,-0.0175,-0.0173,-0.0106,-0.0105,-0.0104,0,0,0,0,0,0,0,0,0,0,0,0,0,-0.0341,-0.0381,-0.0327,-0.0277,-0.0272,-0.0261,-0.026,-0.0259,-0.0178,-0.0176,-0.0174,-0.0173,-0.0106,-0.0105,-0.0104,-0.0138,0,0,-0.0102,-0.0101,0,0,0,0,0,0,0,0,-0.0343,-0.0339,-0.0285,-0.028,-0.0274,-0.0226,-0.0254,-0.0218,-0.0179,-0.0214,-0.0174,-0.0172,-0.0147,-0.0143,-0.0135,-0.0134,-0.0131,-0.0101,-0.0101,-0.0101,-0.01,0,0,0,0,0,0,0,-0.0346,-0.0341,-0.0301,-0.0284,-0.0278,-0.0258,-0.025,-0.0247,-0.0192,-0.0211,-0.0204,-0.0198,-0.0144,-0.0136,-0.0132,-0.013,-0.0102,-0.0101,-0.01,-0.01,-0.0155,-0.0157,0,0,0,0,0,0,-0.0357,-0.0344,-0.0303,-0.0299,-0.0305,-0.0258,-0.0249,-0.0243,-0.0192,-0.0182,-0.02,-0.0194,-0.0138,-0.0134,-0.013,-0.0166,-0.0101,-0.01,-0.0099,-0.0153,-0.0155,-0.0157,0,0,0,0,0,0,-0.0358,-0.0354,-0.0305,-0.032,-0.0312,-0.0259,-0.0253,-0.0243,-0.0235,-0.0184,-0.0173,-0.0201,-0.0137,-0.0131,-0.0136,-0.0162,-0.0099,-0.0098,-0.015,-0.0154,-0.0156,-0.0238,0,0,0,0,0,0,-0.036,-0.0355,-0.0367,-0.0321,-0.0312,-0.0314,-0.0255,-0.0243,-0.0233,-0.0226,-0.0183,-0.0174,-0.0135,-0.0138,-0.0136,-0.016,-0.0098,-0.0148,-0.0152,-0.0155,-0.0233,-0.0243,-0.0252,0,0,0,0,0,-0.0362,-0.0392,-0.0368,-0.0363,-0.0326,-0.0315,-0.031,-0.0265,-0.0236,-0.0248,-0.0215,-0.0175,-0.016,-0.014,-0.0136,-0.016,-0.0146,-0.0151,-0.0155,-0.0228,-0.0241,-0.0252,0,0,0,0,0,0,-0.0442,-0.0385,-0.0358,-0.0373,-0.035,-0.0302,-0.0315,-0.028,-0.0264,-0.0257,-0.0202,-0.0193,-0.0205,-0.0183,-0.0161,-0.019,-0.0147,-0.0151,-0.0204,-0.0216,-0.0226,-0.0231,-0.0097,0,0,0,0,0,-0.0462,-0.0458,-0.0408,-0.0427,-0.0417,-0.0368,-0.0362,-0.0329,-0.0302,-0.0292,-0.0259,-0.0235,-0.0225,-0.0219,-0.0206,-0.0229,-0.0219,-0.0244,-0.0254,-0.0262,-0.0266,-0.0278,-0.0288,-0.0172,-0.0172,-0.0172,0,0,-0.0502,-0.047,-0.0471,-0.0442,-0.042,-0.0418,-0.036,-0.036,-0.0358,-0.0292,-0.0295,-0.0271,-0.0239,-0.0254,-0.0259,-0.0236,-0.0296,-0.0268,-0.0275,-0.0275,-0.0283,-0.0294,-0.0304,-0.0175,-0.0175,-0.0174,0,0,-0.0573,-0.0549,-0.0562,-0.0542,-0.0509,-0.0477,-0.048,-0.0437,-0.0419,-0.0422,-0.0372,-0.0369,-0.0352,-0.0332,-0.032,-0.0386,-0.0348,-0.0383,-0.0435,-0.0446,-0.0455,-0.0463,-0.0487,-0.0497,-0.0387,-0.0387,-0.0388,0,-0.0627,-0.0622,-0.0573,-0.0577,-0.0566,-0.0506,-0.052,-0.0502,-0.0467,-0.0461,-0.0436,-0.0414,-0.0389,-0.0399,-0.0415,-0.0407,-0.0409,-0.0388,-0.0458,-0.0465,-0.0472,-0.0494,-0.0503,-0.0392,-0.0391,-0.0391,-0.0391,0,-0.069,-0.0687,-0.0702,-0.067,-0.0661,-0.0669,-0.0622,-0.0618,-0.0587,-0.0557,-0.0561,-0.0529,-0.051,-0.0509,-0.0478,-0.0515,-0.0502,-0.0468,-0.0424,-0.0488,-0.0508,-0.0517,-0.0398,-0.0397,-0.0395,-0.0394,0,0,-0.081,-0.0752,-0.0758,-0.0744,-0.0704,-0.0701,-0.0707,-0.0688,-0.0686,-0.0665,-0.0668,-0.0656,-0.0625,-0.0611,-0.0577,-0.0588,-0.0643,-0.0553,-0.0551,-0.0571,-0.0682,-0.0708,-0.0718,-0.0618,-0.0619,-0.062,-0.0685,0,-0.0874,-0.0881,-0.0838,-0.0856,-0.0854,-0.0798,-0.0803,-0.0779,-0.0752,-0.0746,-0.0715,-0.0708,-0.0667,-0.0659,-0.0666,-0.0635,-0.0664,-0.0629,-0.0621,-0.0621,-0.0631,-0.0729,-0.0755,-0.0818,-0.0692,-0.0693,-0.0694,0,-0.095,-0.0934,-0.0952,-0.0913,-0.091,-0.0915,-0.0895,-0.089,-0.0862,-0.0841,-0.0827,-0.0788,-0.0791,-0.075,-0.0753,-0.073,-0.0725,-0.0709,-0.071,-0.0708,-0.0662,-0.073,-0.0836,-0.0846,-0.0706,-0.0705,-0.0704,0,-0.1037,-0.1019,-0.1028,-0.1017,-0.0971,-0.0976,-0.0957,-0.0927,-0.0919,-0.0902,-0.0896,-0.0879,-0.087,-0.0858,-0.0816,-0.0789,-0.0825,-0.0779,-0.0808,-0.081,-0.0818,-0.0818,-0.0926,-0.0814,-0.0814,-0.0814,-0.0814,0,-0.1114,-0.1127,-0.1066,-0.1071,-0.1085,-0.1036,-0.1051,-0.1026,-0.1001,-0.1,-0.0951,-0.0952,-0.0896,-0.0891,-0.0858,-0.0867,-0.0863,-0.0847,-0.0838,-0.0851,-0.0854,-0.0847,-0.0842,-0.0816,-0.0816,-0.0815,-0.0815,0,-0.1212,-0.1172,-0.1178,-0.1134,-0.1123,-0.1135,-0.1098,-0.1101,-0.1071,-0.1072,-0.1069,-0.1022,-0.1014,-0.0971,-0.0952,-0.093,-0.095,-0.0932,-0.096,-0.0954,-0.0986,-0.0984,-0.1093,-0.1106,-0.0986,-0.0987,-0.0988,0,-0.1264,-0.1273,-0.1231,-0.1228,-0.1211,-0.1206,-0.1198,-0.115,-0.1144,-0.1113,-0.1121,-0.1108,-0.1096,-0.1085,-0.1049,-0.1035,-0.1017,-0.1056,-0.1014,-0.1028,-0.1018,-0.1018,-0.1019,-0.1065,-0.1067,-0.1068,-0.1069,0,-0.1361,-0.134,-0.1331,-0.1315,-0.1306,-0.1291,-0.1273,-0.1273,-0.122,-0.1215,-0.1206,-0.1197,-0.1178,-0.1167,-0.1147,-0.1127,-0.109,-0.1083,-0.1089,-0.1103,-0.1119,-0.1111,-0.0985,-0.108,-0.1079,-0.1078,-0.1078,-0.1077,-0.1437,-0.1444,-0.1415,-0.1406,-0.1388,-0.1372,-0.1373,-0.1344,-0.1336,-0.1317,-0.129,-0.1285,-0.1258,-0.1227,-0.121,-0.1206,-0.1184,-0.1193,-0.1195,-0.1198,-0.1206,-0.1119,-0.1202,-0.1201,-0.1201,-0.1201,-0.1201,0,-0.1532,-0.1511,-0.1504,-0.148,-0.1473,-0.1439,-0.1418,-0.1414,-0.1411,-0.1389,-0.1378,-0.1368,-0.1357,-0.1321,-0.1307,-0.131,-0.1293,-0.1308,-0.1307,-0.1304,-0.1225,-0.1222,-0.1322,-0.1322,-0.1322,-0.1322,-0.1322,-0.1322,-0.158,-0.1589,-0.1566,-0.1565,-0.1544,-0.1539,-0.153,-0.1515,-0.1498,-0.1489,-0.148,-0.1457,-0.1429,-0.1413,-0.1401,-0.1391,-0.1388,-0.1409,-0.1394,-0.1321,-0.1309,-0.1298,-0.1294,-0.1409,-0.1409,-0.1472,-0.1473,-0.1474]},{"header":{"parameterUnit":"m.s-1","parameterCategory":1,"la1":30.2991,"la2":30.254,"lo1":-89.0895,"lo2":-89.0444,"dy":0.0017,"dx":0.0017,"nx":28,"ny":28,"refTime":"2023-08-17T21:00:00:Z","depth":0,"parameterNumber":3,"parameterNumberName":"V-component_of_WINDS"},"data":[0,0,0,0,0,0,0,0,0,0,0,0,0,0,0,0,0,0,0,0,0,0,0,0,0,0,0,0,0,0,0,0,0,0,0,0,0,0,0,0,0,0,0,0,0,0,0,0,0,0,0,0,0,0,0,0,0,0,3.5939,3.5938,0,3.5907,3.5907,3.5906,3.5879,3.5879,3.5879,3.5878,3.5844,3.5844,3.5843,0,0,0,0,0,0,0,0,0,0,0,0,0,3.5972,3.5972,3.5939,3.5938,3.5938,3.5907,3.5907,3.5906,3.5879,3.5879,3.5879,3.5878,3.5844,3.5844,3.5843,0,0,0,0,0,0,0,0,0,0,0,0,0,3.5951,3.5972,3.5939,3.5921,3.5919,3.5907,3.5907,3.5906,3.5879,3.5879,3.5878,3.5878,3.5845,3.5844,3.5843,3.5846,0,0,3.584,3.584,0,0,0,0,0,0,0,0,3.5952,3.595,3.5924,3.5922,3.592,3.5897,3.5906,3.5886,3.5879,3.5894,3.5878,3.5878,3.5862,3.586,3.5855,3.5844,3.5843,3.584,3.5839,3.5839,3.5839,0,0,0,0,0,0,0,3.5954,3.5951,3.5926,3.5923,3.5921,3.5913,3.591,3.5902,3.5881,3.5893,3.5891,3.5888,3.5861,3.5856,3.5854,3.5842,3.584,3.5839,3.5838,3.5838,3.5829,3.583,0,0,0,0,0,0,3.5958,3.5952,3.5927,3.5925,3.5935,3.5913,3.5909,3.5905,3.5881,3.5877,3.5888,3.5886,3.5857,3.5855,3.5852,3.5852,3.5839,3.5838,3.5837,3.5829,3.583,3.583,0,0,0,0,0,0,3.5959,3.5956,3.5928,3.5938,3.5934,3.5913,3.5908,3.5904,3.5899,3.5877,3.5873,3.5887,3.5857,3.5854,3.5847,3.5851,3.5838,3.5837,3.5829,3.5829,3.583,3.5853,0,0,0,0,0,0,3.596,3.5957,3.5959,3.5938,3.5934,3.5925,3.5908,3.5904,3.5898,3.5895,3.5875,3.5871,3.5856,3.5849,3.5846,3.5849,3.5836,3.5828,3.5829,3.583,3.5852,3.5855,3.5857,0,0,0,0,0,3.5961,3.5967,3.5959,3.5956,3.5936,3.5925,3.5922,3.5906,3.5898,3.5899,3.5884,3.5872,3.5851,3.5848,3.5845,3.5848,3.5828,3.5829,3.5829,3.5851,3.5854,3.5857,0,0,0,0,0,0,3.5988,3.5964,3.5955,3.5954,3.5942,3.5921,3.5922,3.591,3.5899,3.5897,3.5876,3.5872,3.5867,3.5857,3.5855,3.5848,3.5837,3.5838,3.5855,3.5857,3.586,3.5862,3.5835,0,0,0,0,0,3.5994,3.5989,3.5967,3.5969,3.5963,3.5943,3.5938,3.5926,3.5912,3.5907,3.5892,3.5879,3.5868,3.5863,3.5852,3.585,3.5844,3.585,3.5853,3.5855,3.5855,3.585,3.5852,3.5832,3.5832,3.5832,0,0,3.6006,3.5992,3.599,3.5974,3.5963,3.5956,3.5939,3.5934,3.5928,3.5906,3.5899,3.5887,3.587,3.5865,3.5862,3.5857,3.5859,3.5856,3.5857,3.5856,3.5851,3.5853,3.5855,3.5833,3.5833,3.5833,0,0,3.6025,3.6014,3.6013,3.6002,3.5986,3.5972,3.5972,3.5952,3.5943,3.5935,3.5918,3.591,3.5894,3.5882,3.5874,3.5885,3.5872,3.5882,3.5893,3.5889,3.5891,3.5892,3.5894,3.5895,3.5882,3.5882,3.5882,0,3.6041,3.6032,3.6014,3.6008,3.6001,3.598,3.5978,3.5968,3.5949,3.5943,3.5937,3.5914,3.5902,3.5892,3.5895,3.5889,3.5887,3.5884,3.5892,3.5893,3.5894,3.5895,3.5896,3.5883,3.5883,3.5883,3.5883,0,3.6052,3.6045,3.6046,3.6027,3.602,3.6016,3.5996,3.599,3.5978,3.5965,3.5955,3.5939,3.5924,3.5921,3.591,3.5909,3.5906,3.5896,3.5885,3.5897,3.5898,3.5899,3.5885,3.5885,3.5884,3.5884,0,0,3.6087,3.6058,3.6058,3.6048,3.6028,3.6021,3.6015,3.6001,3.5995,3.5982,3.5975,3.596,3.595,3.5941,3.5928,3.5924,3.5931,3.5914,3.5914,3.5917,3.5927,3.5933,3.5935,3.5922,3.5922,3.5922,3.5927,0,3.61,3.609,3.6072,3.6066,3.6058,3.6038,3.6032,3.6018,3.6005,3.5995,3.598,3.5969,3.5958,3.5952,3.5947,3.5931,3.5932,3.5931,3.5914,3.5913,3.5918,3.5935,3.5943,3.5949,3.5928,3.5928,3.5928,0,3.6115,3.6103,3.6096,3.6073,3.6069,3.6065,3.6049,3.604,3.6023,3.6013,3.6001,3.5987,3.5977,3.5967,3.5953,3.5952,3.5944,3.5934,3.5934,3.5931,3.5921,3.5932,3.595,3.5951,3.5929,3.5929,3.5929,0,3.6139,3.6121,3.6113,3.6106,3.608,3.6077,3.6066,3.6048,3.604,3.6025,3.6019,3.6003,3.5995,3.5982,3.5962,3.5958,3.5949,3.5938,3.5939,3.594,3.5938,3.5939,3.5955,3.5935,3.5935,3.5935,3.5935,0,3.6155,3.6151,3.6123,3.6119,3.6113,3.6093,3.6087,3.6074,3.6058,3.6049,3.603,3.6022,3.5998,3.5986,3.5971,3.596,3.5956,3.5947,3.5942,3.5948,3.5949,3.5942,3.5941,3.5935,3.5935,3.5935,3.5935,0,3.618,3.6162,3.6153,3.6129,3.6122,3.6119,3.6098,3.6092,3.6077,3.6066,3.6062,3.6038,3.6023,3.6003,3.5982,3.5971,3.5962,3.5956,3.5968,3.5965,3.5967,3.5966,3.5978,3.5978,3.596,3.596,3.596,0,3.6191,3.6188,3.6163,3.6156,3.6146,3.6135,3.6126,3.6105,3.6096,3.6074,3.607,3.6054,3.604,3.6017,3.5997,3.598,3.5973,3.5978,3.597,3.5975,3.5971,3.5971,3.597,3.598,3.598,3.598,3.5981,0,3.6212,3.6203,3.6191,3.6175,3.6165,3.6151,3.6137,3.6132,3.6107,3.6098,3.6083,3.6072,3.605,3.6033,3.6013,3.6,3.5985,3.5983,3.5982,3.5987,3.5994,3.5989,3.5972,3.5983,3.5983,3.5983,3.5982,3.5982,3.6229,3.6224,3.6206,3.6192,3.6179,3.6166,3.6158,3.6142,3.6129,3.611,3.6098,3.6083,3.6063,3.6035,3.6022,3.6009,3.6003,3.6002,3.6002,3.6001,3.6003,3.5997,3.6005,3.6005,3.6005,3.6005,3.6005,0,3.6247,3.6234,3.6222,3.6202,3.6191,3.6179,3.6162,3.6153,3.614,3.6124,3.611,3.6091,3.6074,3.6053,3.6034,3.6027,3.602,3.6023,3.6023,3.602,3.601,3.6012,3.6029,3.6029,3.6029,3.6029,3.6029,3.6029,3.6255,3.6246,3.6234,3.6217,3.6203,3.6189,3.6179,3.6166,3.6152,3.6133,3.6119,3.6105,3.6085,3.6065,3.6048,3.6042,3.6035,3.604,3.6032,3.6023,3.6021,3.6018,3.602,3.6039,3.6039,3.6043,3.6043,3.6043]}]]